Weather History for Rabat-Sale, Morocco

Change the Weather History Date:

Tuesday, September 3, 2013

  Actual Average Record
Temperature  
Mean Temperature 74 °F -  
Max Temperature 86 °F 77 °F 95 °F (2005)
Min Temperature 61 °F 61 °F 59 °F (2000)
Cooling Degree Days 8    
Growing Degree Days 24 (Base 50)    
Moisture  
Dew Point 61 °F    
Average Humidity 69    
Maximum Humidity 94    
Minimum Humidity 22    
Precipitation  
Precipitation 0.00 in 0.01 in - ()
Sea Level Pressure  
Sea Level Pressure 29.96 in    
Wind  
Wind Speed 1 mph ()    
Max Wind Speed 10 mph    
Max Gust Speed -    
Visibility 3.4 miles    
Events      
Averages and records for this station are not official NWS values.
T = Trace of Precipitation, MM = Missing Value Source: Averaged Metar Reports

Daily Weather History Graph

Daily Weather History Graph

Search for Another Location

Airport:

Trip Planner

Search our weather history database for the weather conditions in past years. The results will help you decide how hot, cold, wet, or windy it might be!

Date:

Astronomy

Sep. 03, 2013 Rise Set
Actual Time 7:02 AM WEST 7:50 PM WEST
Civil Twilight 6:36 AM WEST 8:15 PM WEST
Nautical Twilight 6:06 AM WEST 8:45 PM WEST
Astronomical Twilight 5:35 AM WEST 9:16 PM WEST
Moon 5:05 AM WEST (9/3) 6:28 PM WEST (9/3)
Length of Visible Light 13h 38m
Length of Day
12h 48m
Waning Crescent, 4% of the Moon is Illuminated
Sep 3
Waning Crescent
Sep 5
New
Sep 12
First Quarter
Sep 19
Full
Sep 27
Last Quarter

Hourly Weather History & Observations

Time (WEST) Temp. Heat Index Dew Point Humidity Pressure Visibility Wind Dir Wind Speed Gust Speed Precip Events Conditions
12:00 AM 69.8 °F - 66.2 °F 88% 29.98 in 3.7 mi Calm Calm - N/A   Unknown
12:30 AM 69.8 °F - 66.2 °F 88% 29.98 in 3.7 mi Calm Calm - N/A   Unknown
1:00 AM 68 °F - 65 °F 87% 29.97 in 3 mi Calm Calm - -   Clear
1:00 AM 68.0 °F - 64.4 °F 88% 29.98 in 3.1 mi Calm Calm - N/A   Unknown
1:30 AM 68.0 °F - 64.4 °F 88% 29.95 in 3.1 mi Calm Calm - N/A   Unknown
2:00 AM 66.2 °F - 64.4 °F 94% 29.95 in 3.1 mi Calm Calm - N/A   Unknown
2:30 AM 64.4 °F - 62.6 °F 94% 29.95 in 3.1 mi Calm Calm - N/A   Unknown
3:00 AM 64.4 °F - 62.6 °F 94% 29.95 in 3.1 mi Calm Calm - N/A   Unknown
3:30 AM 64.4 °F - 62.6 °F 94% 29.95 in - Calm Calm - N/A   Unknown
4:00 AM 64 °F - 62 °F 92% 29.95 in 3 mi Calm Calm - -   Clear
4:00 AM 64.4 °F - 62.6 °F 94% 29.95 in 3.1 mi Calm Calm - N/A   Unknown
4:30 AM 64.4 °F - 62.6 °F 94% 29.95 in 3.1 mi Calm Calm - N/A   Unknown
5:00 AM 62.6 °F - 60.8 °F 94% 29.95 in 3.1 mi Calm Calm - N/A   Unknown
5:30 AM 62.6 °F - 60.8 °F 94% 29.95 in 3.1 mi Calm Calm - N/A   Unknown
6:00 AM 62.6 °F - 60.8 °F 94% 29.95 in 3.1 mi Calm Calm - N/A   Unknown
6:30 AM 62.6 °F - 60.8 °F 94% 29.95 in 3.1 mi Calm Calm - N/A   Unknown
6:47 AM 60.8 °F - 59.0 °F 94% 29.95 in 2.5 mi Calm Calm - N/A   Mist
7:00 AM 62 °F - 60 °F 91% 29.96 in 2 mi Calm Calm - -   Clear
7:00 AM 62.6 °F - 60.8 °F 94% 29.95 in 1.9 mi Calm Calm - N/A   Mist
7:30 AM 62.6 °F - 60.8 °F 94% 29.95 in 1.9 mi Calm Calm - N/A   Mist
8:00 AM 64.4 °F - 62.6 °F 94% 29.98 in 2.5 mi Calm Calm - N/A   Mist
8:30 AM 69.8 °F - 68.0 °F 94% 29.98 in 2.5 mi Calm Calm - N/A   Mist
8:31 AM 69.8 °F - 68.0 °F 94% 29.98 in 3.1 mi Calm Calm - N/A   Unknown
9:00 AM 75.2 °F - 66.2 °F 73% 29.98 in 3.1 mi Calm Calm - N/A   Unknown
9:30 AM 77.0 °F - 64.4 °F 65% 29.98 in 3.1 mi WNW 1.2 mph - N/A   Unknown
10:00 AM 78 °F - 66 °F 59% 29.99 in 3 mi NW 4.6 mph - -   Clear
10:00 AM 77.0 °F - 66.2 °F 69% 29.98 in 3.1 mi NW 4.6 mph - N/A   Unknown
11:00 AM 77.0 °F - 68.0 °F 74% 30.01 in 3.1 mi NW 6.9 mph - N/A   Unknown
11:30 AM 78.8 °F - 66.2 °F 65% 30.01 in 3.1 mi NNW 6.9 mph - N/A   Unknown
12:00 PM 82.4 °F 83.9 °F 64.4 °F 54% 29.98 in 3.1 mi NW 5.8 mph - N/A   Unknown
12:30 PM 82.4 °F 84.6 °F 66.2 °F 58% 29.98 in 3.1 mi Variable 1.2 mph - N/A   Unknown
1:00 PM 84 °F - 65 °F 43% 29.97 in 3 mi Calm Calm - -   Clear
1:00 PM 84.2 °F 85.6 °F 64.4 °F 51% 29.98 in 3.1 mi Calm Calm - N/A   Unknown
1:30 PM 84.2 °F 85.6 °F 64.4 °F 51% 29.98 in 3.1 mi Calm Calm - N/A   Unknown
2:00 PM 86.0 °F 86.1 °F 60.8 °F 43% 29.95 in 3.7 mi Calm Calm - N/A   Unknown
2:30 PM 84.2 °F 85.0 °F 62.6 °F 48% 29.95 in 3.7 mi NNW 10.4 mph - N/A   Unknown
3:00 PM 80.6 °F 82.3 °F 64.4 °F 58% 29.95 in 3.7 mi NNW 9.2 mph - N/A   Unknown
3:30 PM 82.4 °F 82.5 °F 59.0 °F 45% 29.95 in 5.0 mi NNW 9.2 mph - N/A   Unknown
4:00 PM 85 °F - 52 °F 22% 29.94 in 5 mi NNW 9.2 mph - -   Clear
4:00 PM 84.2 °F - 51.8 °F 33% 29.95 in 5.0 mi NNW 9.2 mph - N/A   Unknown
4:30 PM 86.0 °F - 48.2 °F 27% 29.95 in 5.0 mi NNW 9.2 mph - N/A   Unknown
5:00 PM 86.0 °F - 46.4 °F 25% 29.95 in - North 9.2 mph - N/A   Clear
5:30 PM 84.2 °F - 50.0 °F 30% 29.95 in - NNW 8.1 mph - N/A   Clear
6:00 PM 84.2 °F - 51.8 °F 33% 29.95 in - NNW 8.1 mph - N/A   Clear
7:00 PM 81 °F - 56 °F 32% 29.94 in 6 mi WNW 5.8 mph - -  
7:00 PM 80.6 °F 80.8 °F 57.2 °F 45% 29.95 in - WNW 5.8 mph - N/A   Clear
8:00 PM 75.2 °F - 59.0 °F 57% 29.95 in 5.0 mi Calm Calm - N/A   Unknown
8:30 PM 73.4 °F - 59.0 °F 61% 29.95 in 5.0 mi Calm Calm - N/A   Unknown
9:00 PM 71.6 °F - 60.8 °F 69% 29.95 in 3.7 mi Calm Calm - N/A   Partly Cloudy
9:30 PM 69.8 °F - 60.8 °F 73% 29.98 in 3.7 mi Calm Calm - N/A   Partly Cloudy
10:00 PM 70 °F - 60 °F 61% 29.98 in 4 mi Calm Calm - -   Clear
10:00 PM 69.8 °F - 59.0 °F 68% 29.98 in 3.7 mi Calm Calm - N/A   Partly Cloudy
10:30 PM 68.0 °F - 57.2 °F 68% 29.98 in 3.7 mi Calm Calm - N/A   Partly Cloudy
11:00 PM 69.8 °F - 57.2 °F 64% 29.98 in 3.7 mi South 1.2 mph - N/A   Scattered Clouds
11:30 PM 68.0 °F - 55.4 °F 64% 29.98 in 3.7 mi Calm Calm - N/A   Scattered Clouds